QPF
0.00 0.00 0.00 0.00 0.00 0.00 0.00 0.00 0.00 0.00 0.00 0.00 0.00 0.00 0.00 0.00 0.00 0.00 0.00 0.00 0.00 0.00 0.00 0.00 0.00 0.00 0.00 0.01 0.00 0.00 0.01 0.00 0.00 0.00 0.01 0.01 0.02 0.02 0.01 0.01 0.00 0.00 0.01
0.00 0.00 0.00 0.00 0.00 0.00 0.00 0.00 0.00 0.00 0.00 0.00 0.00 0.00 0.00 0.00 0.00 0.00 0.00 0.00 0.00 0.00 0.00 0.00 0.00 0.00 0.00 0.00 0.00 0.00 0.00 0.01 0.01 0.01 0.02 0.03 0.03 0.03 0.02 0.01 0.00 0.01 0.01
0.00 0.00 0.00 0.00 0.00 0.00 0.00 0.00 0.00 0.00 0.00 0.00 0.00 0.00 0.00 0.00 0.00 0.00 0.00 0.00 0.00 0.00 0.00 0.00 0.00 0.00 0.00 0.00 0.00 0.01 0.01 0.01 0.01 0.02 0.03 0.02 0.04 0.05 0.04 0.01 0.00 0.01 0.01
0.00 0.00 0.00 0.00 0.00 0.00 0.00 0.00 0.00 0.00 0.00 0.00 0.00 0.00 0.00 0.00 0.00 0.00 0.00 0.00 0.00 0.00 0.00 0.00 0.00 0.00 0.00 0.00 0.00 0.00 0.01 0.01 0.02 0.02 0.01 0.02 0.04 0.07 0.05 0.01 0.01 0.01 0.01
0.00 0.00 0.00 0.00 0.00 0.00 0.00 0.00 0.00 0.00 0.00 0.00 0.00 0.00 0.00 0.00 0.00 0.00 0.00 0.00 0.00 0.00 0.00 0.00 0.00 0.00 0.00 0.00 0.00 0.01 0.01 0.01 0.02 0.01 0.01 0.02 0.03 0.04 0.04 0.01 0.01 0.01 0.01
0.00 0.00 0.00 0.00 0.00 0.00 0.00 0.00 0.00 0.00 0.00 0.00 0.00 0.00 0.00 0.00 0.00 0.00 0.00 0.00 0.00 0.00 0.00 0.00 0.00 0.00 0.00 0.00 0.00 0.01 0.01 0.02 0.02 0.01 0.01 0.02 0.03 0.03 0.02 0.02 0.02 0.02 0.01
0.01 0.00 0.00 0.00 0.00 0.00 0.00 0.00 0.00 0.00 0.00 0.00 0.00 0.00 0.00 0.00 0.00 0.00 0.00 0.00 0.00 0.00 0.00 0.00 0.00 0.00 0.00 0.00 0.00 0.01 0.01 0.01 0.01 0.02 0.03 0.02 0.02 0.03 0.03 0.02 0.02 0.02 0.01
0.01 0.00 0.00 0.00 0.00 0.00 0.00 0.00 0.00 0.00 0.00 0.00 0.00 0.00 0.00 0.00 0.00 0.00 0.00 0.00 0.00 0.00 0.00 0.00 0.00 0.00 0.00 0.00 0.00 0.00 0.01 0.01 0.01 0.02 0.02 0.01 0.02 0.03 0.04 0.03 0.02 0.02 0.02
0.01 0.01 0.00 0.00 0.00 0.00 0.00 0.00 0.00 0.00 0.00 0.00 0.00 0.00 0.00 0.00 0.00 0.00 0.00 0.00 0.00 0.00 0.00 0.00 0.00 0.00 0.00 0.00 0.00 0.00 0.00 0.01 0.01 0.01 0.01 0.01 0.02 0.03 0.04 0.03 0.03 0.02 0.02
0.03 0.01 0.00 0.00 0.00 0.00 0.00 0.00 0.01 0.01 0.00 0.00 0.00 0.00 0.00 0.00 0.00 0.00 0.00 0.00 0.00 0.00 0.00 0.00 0.00 0.00 0.00 0.00 0.00 0.00 0.00 0.00 0.00 0.01 0.02 0.01 0.02 0.03 0.04 0.03 0.02 0.02 0.01
0.04 0.03 0.01 0.00 0.00 0.00 0.00 0.00 0.01 0.01 0.00 0.00 0.00 0.00 0.00 0.00 0.00 0.00 0.00 0.00 0.00 0.00 0.00 0.00 0.00 0.00 0.00 0.00 0.00 0.00 0.00 0.00 0.00 0.01 0.01 0.02 0.04 0.04 0.04 0.04 0.03 0.02 0.01
0.03 0.02 0.02 0.01 0.00 0.00 0.00 0.00 0.00 0.00 0.00 0.00 0.00 0.00 0.00 0.00 0.00 0.00 0.00 0.00 0.00 0.00 0.00 0.00 0.00 0.00 0.00 0.00 0.00 0.00 0.00 0.00 0.00 0.00 0.01 0.02 0.05 0.06 0.06 0.06 0.03 0.02 0.02
0.05 0.02 0.02 0.02 0.01 0.00 0.00 0.00 0.00 0.00 0.00 0.00 0.00 0.00 0.00 0.00 0.00 0.00 0.00 0.00 0.00 0.00 0.00 0.00 0.01 0.00 0.00 0.00 0.00 0.00 0.00 0.00 0.01 0.01 0.01 0.02 0.05 0.07 0.10 0.07 0.05 0.03 0.03
0.07 0.03 0.01 0.02 0.03 0.02 0.02 0.01 0.00 0.00 0.00 0.00 0.00 0.00 0.00 0.00 0.00 0.00 0.00 0.00 0.00 0.00 0.00 0.00 0.01 0.01 0.02 0.02 0.02 0.02 0.01 0.01 0.02 0.01 0.01 0.02 0.04 0.08 0.12 0.10 0.07 0.05 0.04
0.06 0.03 0.01 0.02 0.03 0.05 0.04 0.01 0.01 0.00 0.00 0.00 0.00 0.00 0.00 0.00 0.00 0.00 0.00 0.01 0.00 0.01 0.01 0.01 0.02 0.02 0.04 0.03 0.03 0.02 0.03 0.03 0.03 0.03 0.02 0.03 0.04 0.08 0.13 0.13 0.11 0.08 0.05
0.08 0.06 0.05 0.05 0.03 0.04 0.03 0.02 0.01 0.01 0.00 0.00 0.00 0.00 0.00 0.01 0.01 0.01 0.02 0.02 0.02 0.02 0.02 0.02 0.03 0.03 0.04 0.04 0.03 0.04 0.05 0.04 0.04 0.04 0.03 0.02 0.04 0.06 0.11 0.13 0.14 0.12 0.10
0.11 0.11 0.12 0.11 0.06 0.04 0.04 0.03 0.02 0.01 0.01 0.01 0.01 0.01 0.01 0.02 0.03 0.03 0.04 0.04 0.04 0.05 0.06 0.05 0.05 0.05 0.05 0.05 0.06 0.07 0.06 0.05 0.05 0.04 0.04 0.05 0.05 0.07 0.11 0.14 0.16 0.16 0.15
0.16 0.17 0.18 0.14 0.09 0.07 0.06 0.06 0.04 0.04 0.04 0.04 0.04 0.03 0.03 0.05 0.06 0.07 0.07 0.07 0.07 0.08 0.08 0.08 0.09 0.07 0.06 0.05 0.06 0.06 0.06 0.04 0.04 0.06 0.06 0.06 0.08 0.08 0.10 0.14 0.17 0.20 0.20
0.16 0.19 0.17 0.13 0.10 0.10 0.09 0.09 0.10 0.10 0.10 0.09 0.07 0.06 0.09 0.12 0.13 0.14 0.13 0.12 0.13 0.15 0.13 0.11 0.10 0.10 0.09 0.07 0.06 0.06 0.06 0.06 0.06 0.06 0.07 0.08 0.09 0.08 0.09 0.11 0.15 0.20 0.22
0.25 0.27 0.26 0.22 0.15 0.13 0.14 0.16 0.16 0.16 0.14 0.14 0.14 0.15 0.17 0.20 0.21 0.22 0.21 0.20 0.19 0.18 0.16 0.15 0.13 0.12 0.09 0.07 0.06 0.06 0.07 0.06 0.06 0.07 0.08 0.08 0.08 0.07 0.08 0.11 0.11 0.13 0.16
0.36 0.45 0.48 0.40 0.28 0.24 0.22 0.20 0.18 0.17 0.20 0.21 0.21 0.23 0.24 0.26 0.26 0.24 0.22 0.20 0.19 0.19 0.17 0.15 0.11 0.09 0.07 0.07 0.07 0.06 0.05 0.04 0.04 0.04 0.05 0.05 0.06 0.06 0.07 0.09 0.11 0.11 0.12
0.36 0.49 0.56 0.58 0.50 0.47 0.43 0.37 0.33 0.30 0.27 0.26 0.25 0.26 0.28 0.27 0.26 0.23 0.21 0.20 0.19 0.18 0.16 0.13 0.09 0.07 0.07 0.07 0.08 0.08 0.06 0.04 0.03 0.03 0.03 0.04 0.04 0.05 0.05 0.06 0.07 0.08 0.09
0.21 0.35 0.47 0.57 0.71 0.75 0.70 0.67 0.56 0.47 0.36 0.27 0.24 0.24 0.24 0.25 0.25 0.23 0.20 0.18 0.15 0.14 0.12 0.11 0.09 0.09 0.09 0.10 0.10 0.10 0.08 0.05 0.03 0.03 0.02 0.03 0.04 0.05 0.05 0.07 0.08 0.09 0.09
0.25 0.31 0.43 0.60 0.79 0.91 0.88 0.83 0.80 0.65 0.52 0.44 0.34 0.27 0.22 0.21 0.20 0.21 0.19 0.17 0.14 0.11 0.10 0.09 0.09 0.09 0.08 0.09 0.09 0.09 0.08 0.06 0.05 0.05 0.03 0.03 0.04 0.05 0.05 0.06 0.07 0.09 0.09
0.27 0.35 0.41 0.54 0.71 0.83 0.88 0.83 0.76 0.73 0.61 0.50 0.38 0.29 0.25 0.22 0.20 0.18 0.15 0.14 0.12 0.10 0.07 0.06 0.07 0.06 0.06 0.05 0.05 0.05 0.06 0.06 0.06 0.06 0.05 0.04 0.04 0.04 0.03 0.03 0.04 0.06 0.08
0.21 0.27 0.35 0.39 0.51 0.61 0.65 0.66 0.67 0.68 0.65 0.57 0.50 0.38 0.31 0.23 0.16 0.11 0.10 0.09 0.07 0.07 0.06 0.05 0.05 0.05 0.05 0.04 0.03 0.03 0.03 0.04 0.05 0.05 0.05 0.04 0.03 0.03 0.03 0.03 0.04 0.04 0.05
MSLP
1011.18 1011.05 1011.10 1011.30 1011.57 1011.87 1012.12 1012.30 1012.42 1012.50 1012.59 1012.73 1012.95 1013.27 1013.66 1014.10 1014.54 1014.94 1015.27 1015.51 1015.67 1015.77 1015.85 1015.91 1015.98 1016.08 1016.19 1016.31 1016.44 1016.58 1016.72 1016.87 1017.03 1017.21 1017.41 1017.61 1017.80 1017.99 1018.15 1018.30 1018.43 1018.55 1018.67
1011.00 1010.96 1011.10 1011.37 1011.71 1012.04 1012.32 1012.51 1012.64 1012.74 1012.85 1013.02 1013.27 1013.62 1014.04 1014.48 1014.91 1015.28 1015.56 1015.76 1015.89 1015.97 1016.04 1016.12 1016.21 1016.32 1016.44 1016.55 1016.66 1016.77 1016.87 1016.99 1017.14 1017.32 1017.52 1017.74 1017.95 1018.15 1018.32 1018.47 1018.59 1018.70 1018.82
1010.77 1010.83 1011.06 1011.40 1011.80 1012.18 1012.49 1012.72 1012.87 1013.00 1013.14 1013.35 1013.64 1014.00 1014.42 1014.85 1015.24 1015.55 1015.78 1015.94 1016.03 1016.11 1016.19 1016.29 1016.41 1016.54 1016.67 1016.78 1016.87 1016.95 1017.02 1017.12 1017.25 1017.42 1017.62 1017.85 1018.07 1018.28 1018.45 1018.59 1018.70 1018.82 1018.94
1010.56 1010.72 1011.03 1011.45 1011.90 1012.32 1012.67 1012.93 1013.12 1013.28 1013.46 1013.69 1013.99 1014.36 1014.77 1015.16 1015.50 1015.76 1015.94 1016.05 1016.13 1016.21 1016.31 1016.45 1016.61 1016.77 1016.92 1017.04 1017.11 1017.16 1017.21 1017.27 1017.38 1017.53 1017.73 1017.95 1018.17 1018.37 1018.53 1018.66 1018.77 1018.88 1019.01
1010.47 1010.72 1011.10 1011.57 1012.07 1012.52 1012.89 1013.17 1013.38 1013.56 1013.76 1014.00 1014.31 1014.67 1015.05 1015.40 1015.69 1015.90 1016.04 1016.13 1016.21 1016.30 1016.44 1016.62 1016.83 1017.03 1017.20 1017.32 1017.39 1017.42 1017.43 1017.47 1017.54 1017.68 1017.86 1018.06 1018.26 1018.44 1018.58 1018.69 1018.79 1018.89 1019.02
1010.55 1010.87 1011.30 1011.81 1012.33 1012.79 1013.16 1013.45 1013.66 1013.84 1014.03 1014.28 1014.58 1014.92 1015.27 1015.58 1015.84 1016.02 1016.14 1016.22 1016.31 1016.43 1016.61 1016.83 1017.08 1017.32 1017.51 1017.64 1017.69 1017.70 1017.69 1017.69 1017.74 1017.85 1018.00 1018.18 1018.35 1018.50 1018.61 1018.70 1018.77 1018.86 1019.00
1010.82 1011.18 1011.64 1012.16 1012.67 1013.12 1013.48 1013.73 1013.92 1014.09 1014.27 1014.50 1014.79 1015.11 1015.44 1015.73 1015.97 1016.13 1016.25 1016.34 1016.45 1016.60 1016.82 1017.08 1017.36 1017.62 1017.82 1017.94 1017.99 1017.98 1017.94 1017.92 1017.94 1018.02 1018.14 1018.29 1018.43 1018.55 1018.63 1018.68 1018.74 1018.82 1018.94
1011.20 1011.59 1012.06 1012.57 1013.06 1013.47 1013.79 1014.01 1014.17 1014.30 1014.47 1014.69 1014.96 1015.28 1015.60 1015.89 1016.12 1016.28 1016.40 1016.51 1016.64 1016.82 1017.05 1017.33 1017.63 1017.89 1018.09 1018.20 1018.23 1018.20 1018.15 1018.11 1018.11 1018.16 1018.26 1018.38 1018.49 1018.58 1018.63 1018.66 1018.70 1018.77 1018.89
1011.61 1012.01 1012.47 1012.96 1013.41 1013.78 1014.05 1014.23 1014.36 1014.47 1014.62 1014.84 1015.11 1015.43 1015.76 1016.06 1016.30 1016.48 1016.61 1016.73 1016.86 1017.05 1017.28 1017.56 1017.84 1018.09 1018.27 1018.37 1018.38 1018.34 1018.27 1018.22 1018.20 1018.24 1018.32 1018.42 1018.51 1018.58 1018.62 1018.64 1018.66 1018.72 1018.84
1011.92 1012.32 1012.77 1013.23 1013.65 1013.98 1014.22 1014.37 1014.47 1014.58 1014.73 1014.96 1015.25 1015.59 1015.94 1016.26 1016.52 1016.71 1016.86 1016.97 1017.10 1017.27 1017.49 1017.73 1017.98 1018.20 1018.36 1018.44 1018.44 1018.38 1018.31 1018.25 1018.22 1018.25 1018.32 1018.41 1018.49 1018.55 1018.58 1018.60 1018.62 1018.68 1018.80
1012.04 1012.43 1012.87 1013.31 1013.71 1014.02 1014.24 1014.38 1014.49 1014.62 1014.79 1015.05 1015.38 1015.75 1016.13 1016.47 1016.76 1016.96 1017.11 1017.22 1017.33 1017.47 1017.64 1017.85 1018.06 1018.24 1018.36 1018.42 1018.41 1018.35 1018.27 1018.21 1018.18 1018.20 1018.26 1018.34 1018.41 1018.47 1018.50 1018.53 1018.56 1018.62 1018.74
1011.90 1012.30 1012.74 1013.18 1013.57 1013.88 1014.10 1014.27 1014.41 1014.57 1014.79 1015.10 1015.47 1015.88 1016.30 1016.67 1016.97 1017.19 1017.34 1017.43 1017.52 1017.62 1017.76 1017.91 1018.08 1018.23 1018.33 1018.37 1018.35 1018.29 1018.22 1018.15 1018.11 1018.12 1018.16 1018.22 1018.28 1018.34 1018.38 1018.41 1018.45 1018.51 1018.62
1011.53 1011.93 1012.38 1012.83 1013.24 1013.57 1013.83 1014.04 1014.23 1014.46 1014.74 1015.09 1015.51 1015.97 1016.41 1016.81 1017.13 1017.36 1017.50 1017.59 1017.66 1017.74 1017.84 1017.96 1018.10 1018.22 1018.30 1018.34 1018.32 1018.27 1018.19 1018.12 1018.06 1018.05 1018.06 1018.09 1018.13 1018.17 1018.20 1018.23 1018.27 1018.34 1018.44
1010.98 1011.40 1011.87 1012.34 1012.77 1013.14 1013.46 1013.73 1013.99 1014.28 1014.62 1015.03 1015.50 1015.98 1016.45 1016.87 1017.20 1017.44 1017.59 1017.68 1017.75 1017.82 1017.90 1018.01 1018.13 1018.25 1018.33 1018.38 1018.37 1018.32 1018.24 1018.16 1018.08 1018.02 1017.99 1017.98 1017.98 1017.99 1017.99 1018.01 1018.03 1018.09 1018.17
1010.34 1010.78 1011.27 1011.77 1012.25 1012.67 1013.05 1013.40 1013.73 1014.09 1014.49 1014.94 1015.43 1015.93 1016.41 1016.83 1017.17 1017.42 1017.59 1017.70 1017.78 1017.86 1017.96 1018.08 1018.21 1018.34 1018.44 1018.50 1018.51 1018.47 1018.39 1018.29 1018.18 1018.09 1018.00 1017.93 1017.88 1017.83 1017.80 1017.78 1017.77 1017.79 1017.84
1009.73 1010.19 1010.70 1011.23 1011.75 1012.24 1012.68 1013.10 1013.51 1013.93 1014.37 1014.85 1015.34 1015.84 1016.31 1016.72 1017.06 1017.33 1017.52 1017.66 1017.78 1017.90 1018.03 1018.18 1018.34 1018.49 1018.62 1018.70 1018.73 1018.70 1018.63 1018.51 1018.38 1018.24 1018.11 1017.98 1017.86 1017.76 1017.67 1017.59 1017.54 1017.51 1017.51
1009.22 1009.70 1010.23 1010.79 1011.35 1011.89 1012.41 1012.90 1013.37 1013.84 1014.31 1014.80 1015.28 1015.76 1016.20 1016.59 1016.92 1017.20 1017.42 1017.60 1017.76 1017.93 1018.11 1018.30 1018.49 1018.68 1018.83 1018.94 1018.99 1018.98 1018.92 1018.81 1018.66 1018.50 1018.32 1018.14 1017.97 1017.81 1017.66 1017.53 1017.42 1017.33 1017.27
1008.89 1009.36 1009.90 1010.48 1011.08 1011.67 1012.25 1012.81 1013.35 1013.86 1014.36 1014.84 1015.31 1015.74 1016.14 1016.50 1016.82 1017.09 1017.34 1017.56 1017.78 1017.99 1018.22 1018.45 1018.68 1018.89 1019.06 1019.19 1019.27 1019.28 1019.24 1019.14 1019.00 1018.83 1018.64 1018.44 1018.23 1018.03 1017.83 1017.65 1017.48 1017.33 1017.20
1008.73 1009.20 1009.73 1010.32 1010.94 1011.58 1012.23 1012.86 1013.46 1014.02 1014.54 1015.02 1015.46 1015.85 1016.20 1016.52 1016.82 1017.09 1017.35 1017.60 1017.86 1018.12 1018.38 1018.64 1018.89 1019.11 1019.30 1019.44 1019.54 1019.57 1019.56 1019.49 1019.38 1019.24 1019.06 1018.87 1018.66 1018.43 1018.21 1017.98 1017.77 1017.56 1017.38
1008.76 1009.19 1009.70 1010.28 1010.92 1011.60 1012.31 1013.01 1013.68 1014.30 1014.85 1015.34 1015.76 1016.12 1016.43 1016.71 1016.98 1017.24 1017.50 1017.78 1018.06 1018.35 1018.63 1018.90 1019.15 1019.37 1019.56 1019.70 1019.80 1019.86 1019.89 1019.87 1019.81 1019.71 1019.58 1019.42 1019.23 1019.01 1018.78 1018.54 1018.29 1018.05 1017.82
1008.95 1009.32 1009.78 1010.33 1010.97 1011.69 1012.45 1013.22 1013.97 1014.66 1015.26 1015.78 1016.20 1016.54 1016.83 1017.08 1017.33 1017.58 1017.84 1018.12 1018.42 1018.72 1019.00 1019.27 1019.50 1019.70 1019.87 1020.00 1020.11 1020.19 1020.25 1020.28 1020.28 1020.25 1020.18 1020.07 1019.92 1019.74 1019.52 1019.28 1019.02 1018.76 1018.51
1009.28 1009.57 1009.95 1010.45 1011.07 1011.79 1012.60 1013.45 1014.28 1015.05 1015.74 1016.30 1016.76 1017.11 1017.39 1017.63 1017.86 1018.10 1018.36 1018.64 1018.94 1019.23 1019.51 1019.76 1019.97 1020.14 1020.28 1020.39 1020.49 1020.58 1020.67 1020.75 1020.81 1020.85 1020.85 1020.80 1020.70 1020.56 1020.37 1020.14 1019.89 1019.63 1019.37
1009.73 1009.92 1010.20 1010.62 1011.19 1011.91 1012.75 1013.66 1014.57 1015.44 1016.21 1016.86 1017.36 1017.75 1018.05 1018.30 1018.53 1018.76 1019.02 1019.31 1019.60 1019.90 1020.16 1020.39 1020.57 1020.72 1020.82 1020.91 1021.00 1021.10 1021.20 1021.31 1021.42 1021.51 1021.56 1021.57 1021.52 1021.41 1021.25 1021.04 1020.80 1020.54 1020.29
1010.31 1010.37 1010.53 1010.85 1011.35 1012.04 1012.89 1013.84 1014.83 1015.79 1016.66 1017.39 1017.97 1018.42 1018.75 1019.02 1019.26 1019.51 1019.78 1020.07 1020.37 1020.66 1020.92 1021.14 1021.31 1021.42 1021.51 1021.58 1021.65 1021.73 1021.84 1021.96 1022.10 1022.22 1022.31 1022.35 1022.33 1022.24 1022.10 1021.90 1021.67 1021.41 1021.16
1010.99 1010.93 1010.96 1011.16 1011.58 1012.22 1013.05 1014.03 1015.07 1016.11 1017.06 1017.88 1018.54 1019.05 1019.43 1019.74 1020.00 1020.27 1020.55 1020.85 1021.16 1021.46 1021.74 1021.95 1022.12 1022.23 1022.30 1022.35 1022.40 1022.47 1022.57 1022.69 1022.83 1022.95 1023.05 1023.10 1023.09 1023.01 1022.87 1022.67 1022.43 1022.17 1021.90
1011.80 1011.61 1011.52 1011.61 1011.93 1012.50 1013.30 1014.27 1015.35 1016.43 1017.45 1018.33 1019.06 1019.62 1020.06 1020.40 1020.69 1020.98 1021.28 1021.60 1021.93 1022.25 1022.54 1022.78 1022.95 1023.07 1023.14 1023.18 1023.22 1023.27 1023.35 1023.46 1023.58 1023.69 1023.78 1023.82 1023.80 1023.70 1023.54 1023.33 1023.06 1022.78 1022.49
Thickness
5788 5789 5787 5785 5783 5783 5783 5784 5783 5782 5780 5779 5776 5774 5771 5769 5766 5764 5762 5761 5759 5757 5756 5755 5754 5753 5752 5750 5749 5747 5745 5743 5742 5740 5739 5737 5736 5734 5733 5731 5730 5728 5727
5792 5788 5786 5783 5781 5780 5780 5780 5779 5778 5776 5775 5773 5771 5768 5766 5764 5761 5760 5758 5756 5755 5754 5752 5751 5749 5748 5747 5745 5744 5742 5740 5739 5738 5736 5735 5733 5731 5730 5728 5727 5726 5724
5791 5786 5783 5780 5779 5777 5777 5776 5774 5773 5772 5770 5769 5767 5765 5763 5761 5759 5757 5755 5754 5752 5751 5750 5748 5747 5745 5744 5742 5741 5739 5738 5736 5735 5734 5732 5730 5729 5728 5726 5725 5723 5722
5787 5783 5780 5777 5776 5774 5773 5772 5770 5769 5768 5766 5765 5763 5761 5759 5758 5756 5754 5752 5751 5749 5748 5747 5745 5744 5742 5741 5740 5739 5737 5736 5734 5733 5731 5730 5728 5727 5726 5724 5723 5721 5720
5782 5779 5776 5774 5772 5771 5770 5768 5767 5765 5764 5762 5761 5759 5758 5756 5754 5752 5751 5749 5748 5747 5745 5744 5743 5741 5740 5739 5738 5737 5735 5734 5732 5731 5729 5728 5727 5725 5724 5722 5720 5719 5717
5777 5774 5772 5770 5768 5767 5766 5764 5762 5761 5760 5758 5757 5755 5754 5752 5751 5749 5747 5746 5745 5744 5743 5741 5740 5739 5738 5737 5736 5735 5734 5732 5731 5729 5728 5726 5725 5723 5722 5720 5718 5716 5715
5773 5770 5767 5765 5764 5763 5762 5760 5758 5757 5756 5754 5753 5752 5750 5749 5747 5746 5744 5743 5742 5741 5740 5739 5738 5737 5736 5735 5734 5733 5732 5731 5730 5728 5726 5725 5723 5722 5720 5718 5717 5715 5713
5770 5766 5763 5761 5759 5758 5757 5756 5754 5753 5752 5750 5749 5748 5747 5746 5745 5743 5742 5740 5740 5739 5737 5736 5735 5735 5734 5733 5732 5731 5731 5730 5729 5727 5725 5723 5722 5720 5718 5716 5715 5713 5712
5766 5762 5759 5758 5755 5754 5753 5752 5750 5749 5748 5747 5746 5745 5744 5743 5742 5741 5739 5738 5737 5736 5735 5734 5733 5733 5732 5731 5730 5729 5729 5729 5727 5725 5724 5722 5720 5718 5716 5715 5713 5712 5710
5761 5759 5756 5754 5752 5750 5749 5748 5746 5745 5744 5743 5742 5741 5741 5739 5739 5738 5736 5736 5735 5734 5733 5732 5732 5731 5730 5729 5728 5728 5727 5727 5726 5724 5723 5721 5720 5718 5715 5713 5712 5710 5708
5756 5756 5754 5752 5750 5748 5746 5744 5743 5741 5740 5739 5739 5738 5737 5736 5736 5735 5734 5733 5733 5732 5731 5730 5730 5729 5729 5728 5727 5726 5726 5725 5724 5723 5722 5721 5719 5717 5715 5712 5711 5709 5707
5753 5753 5752 5750 5748 5745 5743 5741 5740 5738 5737 5736 5735 5735 5734 5734 5733 5732 5731 5731 5730 5729 5729 5729 5728 5728 5727 5726 5726 5725 5724 5723 5722 5722 5721 5720 5718 5716 5714 5711 5709 5707 5705
5755 5753 5751 5748 5746 5744 5742 5739 5737 5736 5734 5733 5732 5732 5731 5730 5730 5729 5729 5728 5728 5727 5726 5726 5726 5726 5725 5724 5724 5723 5723 5722 5721 5720 5720 5718 5717 5715 5713 5711 5708 5706 5704
5755 5752 5750 5747 5744 5742 5740 5738 5736 5734 5732 5731 5730 5729 5729 5727 5727 5726 5726 5726 5725 5724 5724 5724 5724 5724 5723 5723 5722 5722 5721 5720 5719 5719 5718 5717 5716 5714 5712 5709 5706 5705 5703
5754 5752 5749 5746 5743 5740 5738 5736 5735 5733 5732 5730 5728 5728 5727 5725 5724 5724 5723 5723 5722 5722 5721 5721 5721 5721 5721 5721 5720 5720 5719 5718 5717 5716 5716 5715 5713 5712 5709 5707 5705 5703 5701
5753 5750 5748 5745 5743 5740 5737 5735 5734 5732 5731 5729 5727 5726 5725 5724 5723 5722 5721 5721 5720 5720 5719 5719 5718 5718 5717 5717 5717 5716 5715 5714 5713 5712 5712 5711 5709 5708 5707 5705 5702 5700 5698
5753 5750 5747 5745 5742 5739 5737 5734 5733 5731 5730 5728 5726 5725 5723 5722 5721 5720 5719 5719 5718 5718 5717 5716 5715 5714 5713 5713 5712 5711 5710 5709 5708 5707 5707 5705 5704 5703 5702 5701 5699 5697 5695
5752 5749 5746 5744 5740 5737 5735 5732 5731 5729 5728 5726 5724 5722 5721 5720 5719 5717 5717 5716 5716 5715 5713 5712 5710 5708 5707 5706 5705 5704 5704 5703 5702 5701 5700 5699 5698 5697 5696 5695 5695 5693 5691
5748 5747 5743 5740 5737 5734 5731 5729 5727 5726 5724 5722 5720 5719 5718 5717 5716 5715 5714 5713 5712 5710 5709 5708 5705 5703 5701 5700 5698 5697 5696 5695 5695 5694 5692 5691 5690 5689 5689 5688 5688 5686 5685
5743 5742 5739 5736 5733 5730 5727 5723 5721 5719 5717 5716 5714 5713 5713 5713 5712 5711 5709 5708 5707 5706 5704 5703 5700 5698 5695 5693 5692 5689 5688 5687 5686 5684 5683 5682 5681 5680 5680 5679 5679 5678 5677
5737 5735 5733 5729 5726 5724 5721 5717 5714 5712 5711 5709 5708 5706 5706 5706 5706 5706 5704 5703 5701 5700 5698 5697 5695 5692 5688 5686 5684 5681 5679 5678 5676 5674 5673 5672 5671 5670 5670 5669 5668 5667 5666
5730 5729 5727 5725 5721 5719 5716 5713 5710 5706 5702 5701 5700 5698 5697 5698 5697 5697 5696 5694 5693 5692 5690 5689 5688 5685 5681 5679 5677 5673 5670 5668 5666 5664 5663 5662 5660 5659 5659 5657 5656 5655 5654
5721 5721 5721 5719 5717 5715 5713 5707 5702 5697 5693 5692 5691 5689 5687 5687 5687 5687 5686 5685 5684 5683 5681 5680 5679 5677 5674 5670 5669 5667 5663 5660 5656 5652 5650 5649 5648 5647 5646 5645 5644 5642 5641
5709 5713 5713 5712 5711 5709 5706 5702 5694 5689 5685 5682 5680 5678 5676 5676 5677 5677 5676 5675 5674 5672 5671 5669 5668 5668 5667 5662 5659 5657 5655 5653 5649 5644 5639 5637 5636 5634 5632 5631 5630 5629 5628
5697 5701 5703 5704 5702 5699 5697 5696 5689 5682 5678 5675 5671 5666 5666 5664 5665 5665 5665 5664 5663 5661 5659 5659 5658 5656 5655 5652 5649 5646 5644 5641 5639 5637 5631 5626 5623 5620 5618 5617 5616 5614 5613
5684 5689 5691 5694 5693 5690 5688 5686 5682 5676 5670 5667 5664 5659 5656 5653 5652 5652 5652 5652 5651 5650 5648 5647 5646 5644 5642 5639 5636 5633 5631 5628 5625 5624 5619 5614 5610 5606 5604 5602 5601 5599 5597